Regional Weather Roundup
Issued by NWS Sioux Falls, SD

Home | Current Version | Previous Version | Text Only | Print | Product List | Glossary On
Versions: 1 2 3 4 5 6 7 8 9 10 11 12 13 14 15 16 17 18 19 20 21 22 23 24 25 26 27 28 29 30 31 32 33 34 35 36 37 38 39 40 41 42 43 44 45 46 47 48 49 50
000
ASUS43 KFSD 291902
RWRFSD

WEATHER ROUNDUP FOR SE SOUTH DAKOTA/SW MINNESOTA/NW IOWA
NATIONAL WEATHER SERVICE SIOUX FALLS SD
200 PM CDT SUN MAR 29 2015

NOTE: "FAIR" INDICATES FEW OR NO CLOUDS BELOW 12,000 FEET WITH NO
SIGNIFICANT WEATHER AND OR OBSTRUCTIONS TO VISIBILITY.


SDZ038>040-050-052>070-292000-
SOUTHEAST SOUTH DAKOTA

CITY           SKY/WX    TMP DP  RH WIND       PRES   REMARKS
CHAMBERLAIN    NOT AVBL
HURON          SUNNY     57  28  33 NW31G41   30.02F
MADISON        FAIR      54  27  35 NW36G43   29.99R
MITCHELL       SUNNY     58  27  30 NW28G37   30.04F
SIOUX FALLS    MOSUNNY   57  27  31 NW28G40   29.97R
YANKTON        SUNNY     57  28  33 N26G36    30.04R
$$

MNZ071-072-080-081-089-090-097-098-292000-
SOUTHWEST MINNESOTA

CITY           SKY/WX    TMP DP  RH WIND       PRES   REMARKS
FAIRMONT       SUNNY    N/A N/A N/A NW31G43   29.82R
JACKSON        SUNNY     55  32  41 NW29G43   29.86R
LUVERNE        SUNNY     55  28  35 N25G39    29.95R
MARSHALL       NOT AVBL
MONTEVIDEO     MOSUNNY   54  36  50 N30G44    29.88R
PIPESTONE      SUNNY     54  28  37 N31G40    29.93R
REDWOOD FALLS  SUNNY     54  34  46 NW26G41   29.85R
TRACY          SUNNY     54  33  43 NW29G39   29.89S
WINDOM         SUNNY     55  28  35 NW33G45   29.86R
$$

IAZ001>003-012>014-020>022-031-032-NEZ013-014-SDZ071-292000-
NORTHWEST IOWA

CITY           SKY/WX    TMP DP  RH WIND       PRES   REMARKS
DENISON        CLOUDY    50  39  66 NW25G37   29.97R
ESTHERVILLE    SUNNY     54  36  50 NW33G43   29.86S
SIOUX CITY     MOSUNNY   57  35  43 NW24G39   29.98F
SPENCER        MOSUNNY   57  33  40 NW24G39   29.90R
$$

ABBREVIATIONS USED IN REMARKS
   TC - TEMPERATURE IN CELSIUS
  WCI - WIND CHILL INDEX
   HX - HEAT INDEX
  VSB - VISIBILITY




USA.gov is the U.S. government's official web portal to all federal, state and local government web resources and services.